Location: Unspecified
(52.4292°N, 19.3359°E)
Time: 17:26:25
(UTC+02:00)

Transit 2A Rocket - Pass Details

Date: 29 May 2024
Orbit: 583 x 910 km, 66.7° (Epoch: 22 June)

Event Time Altitude Azimuth Distance (km) Brightness Sun altitude
Rises 08:59:04 0° 315° (NW) 3,334 7.9 38.0°
Reaches altitude 10° 09:01:48 10° 327° (NNW) 2,452 7.4 38.4°
Maximum altitude 09:06:42 28° 27° (NNE) 1,570 7.0 39.1°
Drops below altitude 10° 09:11:50 10° 85° (E) 2,576 8.8 39.9°
Sets 09:14:46 0° 97° (E) 3,532 9.3 40.3°
